Regional Weather Roundup
Issued by NWS Albany, NY

Home | Current Version | Previous Version | Graphics & Text | Print | Product List | Glossary On
Versions: 1 2 3 4 5 6 7 8 9 10 11 12 13 14 15 16 17 18 19 20 21 22 23 24 25 26 27 28 29 30 31 32 33 34 35 36 37 38 39 40 41 42 43 44 45 46 47 48 49 50
000
ASUS41 KALY 202010
RWRALY

NEW YORK STATE HOURLY WEATHER ROUNDUP
NATIONAL WEATHER SERVICE ALBANY NY
400 PM EDT SAT SEP 20 2014

NOTE: "FAIR" INDICATES FEW OR NO CLOUDS BELOW 12,000 FEET WITH NO
SIGNIFICANT WEATHER AND/OR NO OBSTRUCTIONS TO VISIBILITY.

NYZ032-033-038>043-046>054-057>066-NYZ062>081-202100-
EAST


CITY           SKY/WX    TMP DP  RH WIND       PRES   REMARKS
ALBANY         PTSUNNY   73  55  53 S23G33    30.07F
GLENS FALLS    CLOUDY    69  57  65 S13G21    30.05F
POUGHKEEPSIE   CLOUDY    74  56  53 S8        30.12F
NEWBURGH       PTSUNNY   73  59  60 MISG      30.15F
MONTGOMERY     CLOUDY    73  57  57 S10       30.13F
WHITE PLAINS   MOSUNNY   71  56  58 S9        30.17F
ISLIP          MOSUNNY   72  58  61 S13       30.17F
NEW YORK CITY  PTSUNNY   72  59  63 S18       30.17F
CENTRAL PARK   PTSUNNY   72  58  61 VRB6G21   30.20F
$$

NYZ005>009-017-018-044>046-055-056-202100-
CENTRAL


CITY           SKY/WX    TMP DP  RH WIND       PRES   REMARKS
FULTON         PTSUNNY   74  60  61 S14G28    29.95F
SYRACUSE       MOSUNNY   75  59  57 S22       29.97F
ROME           PTSUNNY   71  58  63 S18G28    30.02F
ELMIRA         PTSUNNY   73  60  63 S16G26    30.01F
BINGHAMTON     CLOUDY    67  57  70 S10       30.07F
MONTICELLO     PTSUNNY   70  57  64 SW14G21   30.15F
$$

NYZ026>034-041>043-202100-
NORTH


CITY           SKY/WX    TMP DP  RH WIND       PRES   REMARKS
WATERTOWN      MOSUNNY   75  57  53 S17G26    29.92F
FORT DRUM      NOT AVBL
MASSENA        PTSUNNY   73  60  63 SW12G26   29.90F
SARANAC LAKE   PTSUNNY   66  55  67 SW21G35   29.98F
PLATTSBURGH    MOSUNNY   68  56  65 S14G23    29.95F
$$

NYZ001>004-010>016-019>021-202100-
WEST


CITY           SKY/WX    TMP DP  RH WIND       PRES   REMARKS
NIAGARA FALLS  MOSUNNY   76  58  53 SW23G41   29.88F
BUFFALO        PTSUNNY   77  57  50 SW25G32   29.90F
DUNKIRK        MOSUNNY   77  58  51 S21G29    29.92F
JAMESTOWN      PTSUNNY   63  57  82 S14G28    29.99F
WELLSVILLE     MOSUNNY   73  56  54 SW9G22    30.04F
ROCHESTER      PTSUNNY   78  59  51 SW15G25   29.91F
PENN YAN       PTSUNNY   74  60  61 S15       29.98F
$$

             KEY
       WCI = WIND CHILL INDEX
       VSB = VISIBILITY
       HX  = HEAT INDEX
$$


USA.gov is the U.S. government's official web portal to all federal, state and local government web resources and services.